| time (UTC) | temp F | wind direction | speed knots | gust knots | rain 1hr in | rain 24hr in | rain mn in | humidity % | barometer mb |
| 20260509144959 | 63 | 305 | 4.3 | 8.7 | 0.00 | 0.00 | 0.00 | 65 | 1000.1 |
| 20260509144458 | 62 | 321 | 4.3 | 9.6 | 0.00 | 0.00 | 0.00 | 65 | 1000.1 |
| 20260509143958 | 63 | 301 | 3.5 | 9.6 | 0.00 | 0.00 | 0.00 | 65 | 1000.3 |
| 20260509143459 | 63 | 259 | 3.5 | 14.8 | 0.00 | 0.00 | 0.00 | 68 | 1000.2 |
| 20260509142958 | 63 | 218 | 3.5 | 14.8 | 0.00 | 0.00 | 0.00 | 66 | 1000.0 |
| 20260509142459 | 64 | 241 | 6.1 | 13.9 | 0.00 | 0.00 | 0.00 | 66 | 1000.0 |
| 20260509141958 | 63 | 217 | 7.0 | 13.9 | 0.00 | 0.00 | 0.00 | 68 | 1000.0 |
| 20260509141459 | 63 | 199 | 7.0 | 15.6 | 0.00 | 0.00 | 0.00 | 67 | 1000.1 |
| 20260509140959 | 63 | 249 | 6.1 | 15.6 | 0.00 | 0.00 | 0.00 | 69 | 1000.1 |
| 20260509140459 | 62 | 266 | 6.1 | 14.8 | 0.00 | 0.00 | 0.00 | 69 | 1000.0 |
| 20260509135959 | 62 | 288 | 6.1 | 18.2 | 0.00 | 0.00 | 0.00 | 69 | 999.9 |
| 20260509135500 | 61 | 227 | 7.0 | 18.2 | 0.00 | 0.00 | 0.00 | 70 | 1000.0 |
| 20260509135001 | 61 | 262 | 7.8 | 17.4 | 0.00 | 0.00 | 0.00 | 69 | 999.9 |
| 20260509134459 | 62 | 220 | 6.1 | 10.4 | 0.00 | 0.00 | 0.00 | 69 | 1000.1 |
| 20260509133959 | 61 | 314 | 3.5 | 13.9 | 0.00 | 0.00 | 0.00 | 71 | 1000.1 |
| 20260509133459 | 61 | 188 | 7.8 | 14.8 | 0.00 | 0.00 | 0.00 | 70 | 1000.0 |
| 20260509132959 | 61 | 211 | 7.0 | 14.8 | 0.00 | 0.00 | 0.00 | 70 | 1000.3 |
| 20260509132500 | 61 | 246 | 6.1 | 14.8 | 0.00 | 0.00 | 0.00 | 70 | 1000.0 |
| 20260509131959 | 60 | 213 | 6.1 | 10.4 | 0.00 | 0.00 | 0.00 | 70 | 1000.1 |
| 20260509131459 | 60 | 249 | 4.3 | 9.6 | 0.00 | 0.00 | 0.00 | 72 | 1000.2 |
| 20260509130958 | 59 | 201 | 4.3 | 8.7 | 0.00 | 0.00 | 0.00 | 72 | 1000.1 |
| 20260509130459 | 59 | 271 | 2.6 | 7.8 | 0.00 | 0.00 | 0.00 | 73 | 1000.2 |
| 20260509130000 | 58 | 266 | 2.6 | 9.6 | 0.00 | 0.00 | 0.00 | 75 | 1000.3 |
| 20260509125459 | 57 | 237 | 3.5 | 10.4 | 0.00 | 0.00 | 0.00 | 75 | 1000.2 |
| 20260509124959 | 57 | 223 | 4.3 | 10.4 | 0.00 | 0.00 | 0.00 | 76 | 1000.2 |
| 20260509124459 | 57 | 206 | 3.5 | 8.7 | 0.00 | 0.00 | 0.00 | 78 | 1000.4 |
| 20260509123959 | 56 | 222 | 4.3 | 8.7 | 0.00 | 0.00 | 0.00 | 80 | 1000.5 |
| 20260509123459 | 55 | 244 | 4.3 | 9.6 | 0.00 | 0.00 | 0.00 | 81 | 1000.6 |
| 20260509122958 | 55 | 212 | 4.3 | 9.6 | 0.00 | 0.00 | 0.00 | 82 | 1000.8 |
| 20260509122459 | 54 | 174 | 3.5 | 9.6 | 0.00 | 0.00 | 0.00 | 83 | 1000.8 |
| 20260509121959 | 54 | 232 | 3.5 | 9.6 | 0.00 | 0.00 | 0.00 | 83 | 1000.8 |
| 20260509121459 | 54 | 227 | 3.5 | 8.7 | 0.00 | 0.00 | 0.00 | 83 | 1000.9 |
| 20260509121000 | 53 | 238 | 3.5 | 7.8 | 0.00 | 0.00 | 0.00 | 83 | 1000.8 |
| 20260509120459 | 53 | 229 | 2.6 | 7.8 | 0.00 | 0.00 | 0.00 | 84 | 1000.5 |
| 20260509115958 | 53 | 242 | 3.5 | 7.8 | 0.00 | 0.00 | 0.00 | 84 | 1000.5 |
| 20260509115459 | 53 | 292 | 3.5 | 7.8 | 0.00 | 0.00 | 0.00 | 84 | 1000.5 |
| 20260509114958 | 53 | 190 | 2.6 | 5.2 | 0.00 | 0.00 | 0.00 | 84 | 1000.5 |
| 20260509114459 | 53 | 207 | 2.6 | 7.0 | 0.00 | 0.00 | 0.00 | 84 | 1000.5 |
| 20260509113958 | 53 | 221 | 2.6 | 7.8 | 0.00 | 0.00 | 0.00 | 85 | 1000.7 |
| 20260509113459 | 52 | 205 | 3.5 | 7.0 | 0.00 | 0.00 | 0.00 | 85 | 1000.7 |
| 20260509112959 | 52 | 209 | 2.6 | 7.0 | 0.00 | 0.00 | 0.00 | 85 | 1000.8 |
| 20260509112459 | 52 | 164 | 2.6 | 7.0 | 0.00 | 0.00 | 0.00 | 85 | 1000.7 |
| 20260509111959 | 52 | 208 | 2.6 | 7.0 | 0.00 | 0.00 | 0.00 | 85 | 1000.7 |
| 20260509111459 | 52 | 235 | 1.7 | 7.8 | 0.00 | 0.00 | 0.00 | 85 | 1000.8 |
| 20260509110958 | 52 | 227 | 2.6 | 8.7 | 0.00 | 0.00 | 0.00 | 85 | 1000.8 |
| 20260509110459 | 52 | 229 | 4.3 | 8.7 | 0.00 | 0.00 | 0.00 | 85 | 1000.8 |
| 20260509110002 | 52 | 235 | 2.6 | 7.8 | 0.00 | 0.00 | 0.00 | 85 | 1000.7 |
| 20260509105459 | 52 | 218 | 4.3 | 7.8 | 0.00 | 0.00 | 0.00 | 85 | 1000.7 |
| 20260509104958 | 52 | 171 | 2.6 | 7.0 | 0.00 | 0.00 | 0.00 | 85 | 1000.6 |
| 20260509104458 | 52 | 172 | 2.6 | 7.0 | 0.00 | 0.00 | 0.00 | 85 | 1000.8 |
| 20260509103959 | 51 | 266 | 2.6 | 7.0 | 0.00 | 0.00 | 0.00 | 85 | 1000.8 |
| 20260509103459 | 51 | 258 | 1.7 | 8.7 | 0.00 | 0.00 | 0.00 | 85 | 1000.9 |
| 20260509102959 | 51 | 249 | 1.7 | 7.8 | 0.00 | 0.00 | 0.00 | 85 | 1001.0 |
| 20260509102459 | 51 | 251 | 3.5 | 7.8 | 0.00 | 0.00 | 0.00 | 85 | 1001.1 |
| 20260509101959 | 51 | 216 | 2.6 | 5.2 | 0.00 | 0.00 | 0.00 | 85 | 1001.2 |
| 20260509101459 | 51 | 207 | 2.6 | 6.1 | 0.00 | 0.00 | 0.00 | 85 | 1001.2 |
| 20260509100959 | 51 | 168 | 2.6 | 7.8 | 0.00 | 0.00 | 0.00 | 84 | 1001.1 |
| 20260509100500 | 51 | 234 | 2.6 | 5.2 | 0.00 | 0.00 | 0.00 | 84 | 1001.2 |
| 20260509100000 | 51 | 216 | 1.7 | 5.2 | 0.00 | 0.00 | 0.00 | 84 | 1001.3 |
| 20260509095458 | 51 | 201 | 2.6 | 5.2 | 0.00 | 0.00 | 0.00 | 84 | 1001.3 |
| 20260509094959 | 51 | 200 | 3.5 | 5.2 | 0.00 | 0.00 | 0.00 | 83 | 1001.4 |
| 20260509094458 | 51 | 266 | 3.5 | 5.2 | 0.00 | 0.00 | 0.00 | 83 | 1001.4 |
| 20260509083500 | 51 | 243 | 0.9 | 7.0 | 0.00 | 0.00 | 0.00 | 78 | 1001.9 |
| 20260509082958 | 51 | 192 | 1.7 | 6.1 | 0.00 | 0.00 | 0.00 | 78 | 1002.0 |
| 20260509082458 | 51 | 239 | 2.6 | 5.2 | 0.00 | 0.00 | 0.00 | 77 | 1002.1 |
| 20260509081958 | 51 | 159 | 2.6 | 6.1 | 0.00 | 0.00 | 0.00 | 76 | 1002.1 |
| 20260509081459 | 51 | 171 | 2.6 | 4.3 | 0.00 | 0.00 | 0.00 | 75 | 1002.1 |
| 20260509080958 | 51 | 207 | 1.7 | 6.1 | 0.00 | 0.00 | 0.00 | 74 | 1002.1 |
| 20260509073459 | 51 | 217 | 1.7 | 3.5 | 0.00 | 0.00 | 0.00 | 66 | 1002.6 |
| 20260509072959 | 51 | 220 | 2.6 | 6.1 | 0.00 | 0.00 | 0.00 | 65 | 1002.6 |
| 20260509072459 | 51 | 203 | 0.9 | 7.0 | 0.00 | 0.00 | 0.00 | 63 | 1002.6 |
| 20260509071959 | 51 | 241 | 2.6 | 7.0 | 0.00 | 0.00 | 0.00 | 62 | 1002.7 |
| 20260509071458 | 52 | 219 | 0.9 | 7.8 | 0.00 | 0.00 | 0.00 | 61 | 1002.8 |
| 20260509070958 | 52 | 276 | 3.5 | 7.8 | 0.00 | 0.00 | 0.00 | 61 | 1002.7 |
| 20260509070458 | 52 | 221 | 3.5 | 7.0 | 0.00 | 0.00 | 0.00 | 61 | 1002.7 |
| 20260509065958 | 52 | 209 | 0.9 | 7.0 | 0.00 | 0.00 | 0.00 | 60 | 1002.8 |
| 20260509065458 | 52 | 201 | 2.6 | 7.0 | 0.00 | 0.00 | 0.00 | 59 | 1002.7 |
| 20260509064958 | 52 | 209 | 2.6 | 7.0 | 0.00 | 0.00 | 0.00 | 58 | 1002.9 |
| 20260509064458 | 52 | 266 | 2.6 | 7.0 | 0.00 | 0.00 | 0.00 | 56 | 1002.9 |
| 20260509063958 | 52 | 244 | 0.9 | 6.1 | 0.00 | 0.00 | 0.00 | 53 | 1003.0 |
| 20260509063459 | 52 | 247 | 1.7 | 6.1 | 0.00 | 0.00 | 0.00 | 51 | 1003.1 |
| 20260509062959 | 51 | 253 | 2.6 | 5.2 | 0.00 | 0.00 | 0.00 | 48 | 1003.1 |
| 20260509062458 | 51 | 146 | 2.6 | 7.8 | 0.00 | 0.00 | 0.00 | 45 | 1003.1 |
| 20260509061959 | 51 | 103 | 2.6 | 7.8 | 0.00 | 0.00 | 0.00 | 43 | 1003.1 |
| 20260509061459 | 51 | 204 | 0.9 | 7.0 | 0.00 | 0.00 | 0.00 | 41 | 1003.1 |
| 20260509060958 | 50 | 176 | 2.6 | 7.0 | 0.00 | 0.00 | 0.00 | 40 | 1003.3 |
| 20260509060458 | 50 | 258 | 1.7 | 5.2 | 0.00 | 0.00 | 0.00 | 40 | 1003.4 |
| 20260509055958 | 50 | 181 | 0.9 | 5.2 | 0.00 | 0.00 | 0.00 | 40 | 1003.4 |
| 20260509055459 | 50 | 199 | 1.7 | 4.3 | 0.00 | 0.00 | 0.00 | 40 | 1003.5 |
| 20260509054958 | 50 | 190 | 1.7 | 5.2 | 0.00 | 0.00 | 0.00 | 40 | 1003.5 |
| 20260509054458 | 50 | 190 | 0.9 | 5.2 | 0.00 | 0.00 | 0.00 | 39 | 1003.5 |
| 20260509053958 | 50 | 240 | 1.7 | 3.5 | 0.00 | 0.00 | 0.00 | 39 | 1003.6 |
| 20260509053458 | 49 | 169 | 0.9 | 2.6 | 0.00 | 0.00 | 0.00 | 40 | 1003.6 |
| 20260509052959 | 49 | 155 | 0.9 | 2.6 | 0.00 | 0.00 | 0.00 | 40 | 1003.7 |
| 20260509052458 | 49 | 243 | 0.0 | 3.5 | 0.00 | 0.00 | 0.00 | 41 | 1003.7 |
| 20260509051959 | 49 | 203 | 0.9 | 3.5 | 0.00 | 0.00 | 0.00 | 41 | 1003.6 |
| 20260509051459 | 49 | 218 | 0.9 | 3.5 | 0.00 | 0.00 | 0.00 | 41 | 1003.8 |
| 20260509050958 | 48 | 285 | 0.9 | 4.3 | 0.00 | 0.00 | 0.00 | 42 | 1003.8 |
| 20260509050459 | 48 | 147 | 1.7 | 4.3 | 0.00 | 0.00 | 0.00 | 42 | 1003.8 |
| 20260509045958 | 47 | 222 | 0.9 | 3.5 | 0.00 | 0.00 | 0.00 | 43 | 1003.9 |
| 20260509045458 | 47 | 209 | 0.9 | 3.5 | 0.00 | 0.00 | 0.00 | 43 | 1003.9 |
| 20260509044958 | 46 | 223 | 0.9 | 2.6 | 0.00 | 0.00 | 0.00 | 44 | 1003.7 |
| 20260509044459 | 46 | 105 | 0.0 | 2.6 | 0.00 | 0.00 | 0.00 | 45 | 1003.8 |
| 20260509043958 | 45 | 145 | 0.0 | 1.7 | 0.00 | 0.00 | 0.00 | 45 | 1003.8 |
| 20260509043459 | 45 | 130 | 0.0 | 1.7 | 0.00 | 0.00 | 0.00 | 47 | 1003.8 |
| 20260509042958 | 44 | 99 | 0.0 | 3.5 | 0.00 | 0.00 | 0.00 | 48 | 1003.9 |
| 20260509042459 | 44 | 151 | 0.9 | 3.5 | 0.00 | 0.00 | 0.00 | 48 | 1003.8 |
| 20260509041958 | 44 | 224 | 0.9 | 2.6 | 0.00 | 0.00 | 0.00 | 50 | 1004.0 |
| 20260509041458 | 44 | 87 | 0.0 | 1.7 | 0.00 | 0.00 | 0.00 | 51 | 1004.0 |
| 20260509040958 | 44 | 193 | 0.9 | 1.7 | 0.00 | 0.00 | 0.00 | 55 | 1004.0 |
| 20260509040458 | 44 | 182 | 0.0 | 0.9 | 0.00 | 0.00 | 0.00 | 59 | 1004.1 |
| 20260509040004 | 44 | 182 | 0.0 | 0.9 | 0.00 | 0.00 | 0.00 | 59 | 1004.2 |
| 20260509035459 | 45 | 182 | 0.0 | 0.9 | 0.00 | 0.00 | 0.00 | 59 | 1004.2 |
| 20260509034959 | 45 | 182 | 0.0 | 0.9 | 0.00 | 0.00 | 0.00 | 59 | 1004.2 |
| 20260509034459 | 45 | 182 | 0.0 | 0.9 | 0.00 | 0.00 | 0.00 | 56 | 1004.5 |
| 20260509034000 | 45 | 176 | 0.0 | 0.9 | 0.00 | 0.00 | 0.00 | 55 | 1004.7 |
| 20260509033459 | 45 | 168 | 0.0 | 0.9 | 0.00 | 0.00 | 0.00 | 53 | 1004.6 |
| 20260509032959 | 45 | 168 | 0.0 | 0.9 | 0.00 | 0.00 | 0.00 | 52 | 1004.5 |
| 20260509032459 | 45 | 165 | 0.0 | 0.9 | 0.00 | 0.00 | 0.00 | 53 | 1004.5 |
| 20260509031959 | 45 | 241 | 0.0 | 0.9 | 0.00 | 0.00 | 0.00 | 53 | 1004.6 |
| 20260509031459 | 45 | 241 | 0.0 | 0.9 | 0.00 | 0.00 | 0.00 | 52 | 1004.7 |
| 20260509030958 | 45 | 246 | 0.0 | 1.7 | 0.00 | 0.00 | 0.00 | 52 | 1004.7 |
| 20260509030459 | 45 | 250 | 0.9 | 1.7 | 0.00 | 0.00 | 0.00 | 53 | 1005.0 |
| 20260509025959 | 45 | 246 | 0.0 | 1.7 | 0.00 | 0.00 | 0.00 | 54 | 1004.8 |
| 20260509025458 | 46 | 246 | 0.0 | 1.7 | 0.00 | 0.00 | 0.00 | 53 | 1004.9 |
| 20260509025000 | 46 | 246 | 0.0 | 0.9 | 0.00 | 0.00 | 0.00 | 56 | 1005.0 |
| 20260509024459 | 46 | 246 | 0.0 | 0.9 | 0.00 | 0.00 | 0.00 | 55 | 1005.1 |
| 20260509024000 | 47 | 246 | 0.0 | 0.9 | 0.00 | 0.00 | 0.00 | 55 | 1004.9 |
| 20260509023459 | 47 | 246 | 0.0 | 0.9 | 0.00 | 0.00 | 0.00 | 55 | 1005.1 |
| 20260509022959 | 48 | 246 | 0.0 | 0.9 | 0.00 | 0.00 | 0.00 | 54 | 1005.1 |
| 20260509022500 | 48 | 246 | 0.0 | 0.0 | 0.00 | 0.00 | 0.00 | 53 | 1005.0 |
| 20260509014959 | 51 | 246 | 0.0 | 0.9 | 0.00 | 0.00 | 0.00 | 43 | 1004.9 |
| 20260509014458 | 51 | 246 | 0.0 | 0.9 | 0.00 | 0.00 | 0.00 | 43 | 1004.9 |
| 20260509013959 | 52 | 246 | 0.0 | 0.9 | 0.00 | 0.00 | 0.00 | 43 | 1004.9 |
| 20260509013459 | 53 | 246 | 0.0 | 0.0 | 0.00 | 0.00 | 0.00 | 41 | 1004.9 |
| 20260509012959 | 53 | 246 | 0.0 | 0.0 | 0.00 | 0.00 | 0.00 | 41 | 1005.0 |
| 20260509012459 | 54 | 246 | 0.0 | 0.0 | 0.00 | 0.00 | 0.00 | 40 | 1004.9 |
| 20260509011958 | 54 | 246 | 0.0 | 0.0 | 0.00 | 0.00 | 0.00 | 40 | 1004.9 |
| 20260509011500 | 55 | 246 | 0.0 | 0.0 | 0.00 | 0.00 | 0.00 | 39 | 1005.0 |
| 20260509010959 | 56 | 246 | 0.0 | 0.0 | 0.00 | 0.00 | 0.00 | 38 | 1004.9 |
| 20260509010500 | 56 | 246 | 0.0 | 0.0 | 0.00 | 0.00 | 0.00 | 38 | 1004.9 |
| 20260509010001 | 57 | 246 | 0.0 | 0.0 | 0.00 | 0.00 | 0.00 | 37 | 1005.0 |
| 20260509005500 | 58 | 246 | 0.0 | 0.0 | 0.00 | 0.00 | 0.00 | 36 | 1005.0 |
| 20260509005001 | 58 | 246 | 0.0 | 0.0 | 0.00 | 0.00 | 0.00 | 36 | 1005.0 |
| 20260509004500 | 59 | 246 | 0.0 | 0.0 | 0.00 | 0.00 | 0.00 | 35 | 1005.0 |
| 20260509004000 | 59 | 246 | 0.0 | 0.9 | 0.00 | 0.00 | 0.00 | 35 | 1005.0 |
| 20260509003501 | 59 | 246 | 0.0 | 0.9 | 0.00 | 0.00 | 0.00 | 34 | 1004.9 |
| 20260509003000 | 60 | 246 | 0.0 | 0.0 | 0.00 | 0.00 | 0.00 | 33 | 1005.0 |
| 20260509002500 | 60 | 246 | 0.0 | 0.9 | 0.00 | 0.00 | 0.00 | 32 | 1005.0 |
| 20260509002000 | 60 | 246 | 0.0 | 1.7 | 0.00 | 0.00 | 0.00 | 32 | 1005.0 |
| 20260509001500 | 60 | 238 | 0.0 | 1.7 | 0.00 | 0.00 | 0.00 | 32 | 1005.1 |
| 20260509001000 | 60 | 253 | 0.0 | 3.5 | 0.00 | 0.00 | 0.00 | 33 | 1005.2 |
| 20260509000500 | 61 | 218 | 0.9 | 4.3 | 0.00 | 0.00 | 0.00 | 32 | 1005.2 |
| 20260508235959 | 61 | 225 | 0.9 | 4.3 | 0.00 | 0.00 | 0.00 | 32 | 1005.4 |
| 20260508235459 | 60 | 229 | 0.9 | 4.3 | 0.00 | 0.00 | 0.00 | 32 | 1005.4 |
| 20260508234958 | 61 | 276 | 0.9 | 4.3 | 0.00 | 0.00 | 0.00 | 32 | 1005.4 |
| 20260508234500 | 61 | 260 | 1.7 | 7.8 | 0.00 | 0.00 | 0.00 | 33 | 1005.4 |
| 20260508233958 | 61 | 328 | 2.6 | 7.8 | 0.00 | 0.00 | 0.00 | 32 | 1005.4 |
| 20260508233458 | 61 | 282 | 1.7 | 5.2 | 0.00 | 0.00 | 0.00 | 33 | 1005.4 |
| 20260508232959 | 61 | 243 | 1.7 | 4.3 | 0.00 | 0.00 | 0.00 | 34 | 1005.4 |
| 20260508232459 | 61 | 251 | 1.7 | 5.2 | 0.00 | 0.00 | 0.00 | 33 | 1005.4 |
| 20260508231959 | 61 | 266 | 1.7 | 5.2 | 0.00 | 0.00 | 0.00 | 33 | 1005.4 |
| 20260508231458 | 61 | 334 | 2.6 | 7.0 | 0.00 | 0.00 | 0.00 | 32 | 1005.4 |
| 20260508220459 | 63 | 337 | 2.6 | 7.0 | 0.00 | 0.00 | 0.00 | 32 | 1005.4 |
| 20260508215958 | 63 | 276 | 1.7 | 7.0 | 0.00 | 0.00 | 0.00 | 32 | 1005.5 |
| 20260508215459 | 64 | 340 | 2.6 | 5.2 | 0.00 | 0.00 | 0.00 | 31 | 1005.5 |
| 20260508214958 | 64 | 259 | 1.7 | 4.3 | 0.00 | 0.00 | 0.00 | 32 | 1005.5 |
| 20260508214459 | 64 | 260 | 2.6 | 7.0 | 0.00 | 0.00 | 0.00 | 28 | 1005.4 |
| 20260508213959 | 63 | 257 | 2.6 | 7.8 | 0.00 | 0.00 | 0.00 | 31 | 1005.4 |
| 20260508213459 | 63 | 266 | 3.5 | 8.7 | 0.00 | 0.00 | 0.00 | 29 | 1005.5 |
| 20260508205959 | 64 | 293 | 2.6 | 8.7 | 0.00 | 0.00 | 0.00 | 30 | 1005.7 |
| 20260508205458 | 64 | 336 | 5.2 | 8.7 | 0.00 | 0.00 | 0.00 | 30 | 1005.8 |
| 20260508204958 | 64 | 226 | 3.5 | 8.7 | 0.00 | 0.00 | 0.00 | 28 | 1005.7 |
| 20260508204458 | 64 | 355 | 3.5 | 7.8 | 0.00 | 0.00 | 0.00 | 30 | 1005.7 |
| 20260508203959 | 64 | 217 | 3.5 | 8.7 | 0.00 | 0.00 | 0.00 | 30 | 1005.8 |
| 20260508203458 | 64 | 324 | 4.3 | 8.7 | 0.00 | 0.00 | 0.00 | 29 | 1005.8 |
| 20260508202959 | 65 | 260 | 2.6 | 4.3 | 0.00 | 0.00 | 0.00 | 29 | 1006.0 |
| 20260508202456 | 65 | 254 | 2.6 | 7.8 | 0.00 | 0.00 | 0.00 | 31 | 1006.2 |
| 20260508201956 | 65 | 209 | 3.5 | 7.8 | 0.00 | 0.00 | 0.00 | 29 | 1006.1 |
| 20260508201457 | 65 | 305 | 2.6 | 7.8 | 0.00 | 0.00 | 0.00 | 29 | 1006.1 |
| 20260508200957 | 65 | 221 | 3.5 | 7.8 | 0.00 | 0.00 | 0.00 | 29 | 1006.1 |
| 20260508200457 | 65 | 281 | 1.7 | 7.8 | 0.00 | 0.00 | 0.00 | 30 | 1006.2 |
| 20260508195958 | 65 | 307 | 3.5 | 9.6 | 0.00 | 0.00 | 0.00 | 29 | 1006.3 |
| 20260508192456 | 65 | 195 | 3.5 | 7.0 | 0.00 | 0.00 | 0.00 | 32 | 1006.7 |
| 20260508191956 | 65 | 199 | 2.6 | 7.0 | 0.00 | 0.00 | 0.00 | 33 | 1006.7 |
| 20260508191455 | 64 | 318 | 3.5 | 6.1 | 0.00 | 0.00 | 0.00 | 31 | 1006.7 |
| 20260508190956 | 64 | 299 | 2.6 | 7.8 | 0.00 | 0.00 | 0.00 | 34 | 1006.7 |
| 20260508190455 | 63 | 305 | 3.5 | 7.8 | 0.00 | 0.00 | 0.00 | 32 | 1006.8 |
| 20260508185958 | 64 | 224 | 3.5 | 7.8 | 0.00 | 0.00 | 0.00 | 32 | 1006.8 |
| 20260508185457 | 62 | 236 | 3.5 | 7.0 | 0.00 | 0.00 | 0.00 | 33 | 1006.9 |
| 20260508184957 | 63 | 352 | 1.7 | 6.1 | 0.00 | 0.00 | 0.00 | 39 | 1007.0 |
| 20260508184457 | 63 | 325 | 2.6 | 6.1 | 0.00 | 0.00 | 0.00 | 37 | 1007.0 |
| 20260508183957 | 62 | 266 | 3.5 | 8.7 | 0.00 | 0.00 | 0.00 | 37 | 1007.0 |
| 20260508183458 | 63 | 271 | 3.5 | 8.7 | 0.00 | 0.00 | 0.00 | 37 | 1007.0 |
| 20260508182958 | 63 | 213 | 3.5 | 7.8 | 0.00 | 0.00 | 0.00 | 36 | 1007.1 |
| 20260508182457 | 62 | 266 | 2.6 | 9.6 | 0.00 | 0.00 | 0.00 | 37 | 1007.3 |
| 20260508174956 | 61 | 230 | 1.7 | 5.2 | 0.00 | 0.00 | 0.00 | 37 | 1007.5 |
| 20260508174456 | 61 | 350 | 1.7 | 7.0 | 0.00 | 0.00 | 0.00 | 39 | 1007.6 |
| 20260508173956 | 60 | 220 | 2.6 | 7.0 | 0.00 | 0.00 | 0.00 | 32 | 1007.9 |
| 20260508173456 | 61 | 205 | 0.9 | 9.6 | 0.00 | 0.00 | 0.00 | 34 | 1008.0 |
| 20260508172956 | 62 | 220 | 3.5 | 9.6 | 0.00 | 0.00 | 0.00 | 35 | 1008.1 |
| 20260508172456 | 62 | 280 | 2.6 | 5.2 | 0.00 | 0.00 | 0.00 | 37 | 1008.1 |
| 20260508171955 | 61 | 261 | 1.7 | 5.2 | 0.00 | 0.00 | 0.00 | 36 | 1008.2 |
| 20260508171457 | 61 | 23 | 1.7 | 7.8 | 0.00 | 0.00 | 0.00 | 37 | 1008.4 |
| 20260508170956 | 62 | 209 | 3.5 | 8.7 | 0.00 | 0.00 | 0.00 | 36 | 1008.4 |
| 20260508170455 | 61 | 257 | 3.5 | 8.7 | 0.00 | 0.00 | 0.00 | 32 | 1008.4 |
| 20260508165956 | 61 | 271 | 2.6 | 7.8 | 0.00 | 0.00 | 0.00 | 33 | 1008.4 |
| 20260508165456 | 61 | 318 | 2.6 | 9.6 | 0.00 | 0.00 | 0.00 | 32 | 1008.6 |
| 20260508164956 | 61 | 183 | 3.5 | 9.6 | 0.00 | 0.00 | 0.00 | 31 | 1008.7 |
| 20260508164456 | 62 | 294 | 1.7 | 7.0 | 0.00 | 0.00 | 0.00 | 34 | 1008.8 |
| 20260508163957 | 62 | 244 | 2.6 | 9.6 | 0.00 | 0.00 | 0.00 | 31 | 1008.8 |
| 20260508163456 | 61 | 339 | 2.6 | 10.4 | 0.00 | 0.00 | 0.00 | 32 | 1008.9 |
| 20260508162955 | 61 | 237 | 4.3 | 8.7 | 0.00 | 0.00 | 0.00 | 33 | 1008.9 |
| 20260508162456 | 61 | 276 | 2.6 | 8.7 | 0.00 | 0.00 | 0.00 | 32 | 1008.9 |
| 20260508161956 | 61 | 302 | 3.5 | 6.1 | 0.00 | 0.00 | 0.00 | 33 | 1009.0 |
| 20260508161456 | 61 | 276 | 2.6 | 7.0 | 0.00 | 0.00 | 0.00 | 35 | 1008.9 |
| 20260508160956 | 60 | 46 | 1.7 | 7.0 | 0.00 | 0.00 | 0.00 | 37 | 1008.9 |
| 20260508160456 | 59 | 220 | 1.7 | 6.1 | 0.00 | 0.00 | 0.00 | 36 | 1008.9 |
| 20260508155956 | 59 | 217 | 1.7 | 7.8 | 0.00 | 0.00 | 0.00 | 34 | 1009.0 |
| 20260508155456 | 59 | 311 | 3.5 | 7.8 | 0.00 | 0.00 | 0.00 | 36 | 1009.1 |
| 20260508154956 | 59 | 159 | 0.9 | 7.8 | 0.00 | 0.00 | 0.00 | 32 | 1009.2 |
| 20260508154456 | 59 | 305 | 2.6 | 5.2 | 0.00 | 0.00 | 0.00 | 40 | 1009.2 |
| 20260508153956 | 59 | 258 | 2.6 | 5.2 | 0.00 | 0.00 | 0.00 | 34 | 1009.2 |
| 20260508153456 | 59 | 271 | 1.7 | 7.8 | 0.00 | 0.00 | 0.00 | 35 | 1009.2 |
| 20260508152956 | 59 | 258 | 3.5 | 8.7 | 0.00 | 0.00 | 0.00 | 37 | 1009.3 |
| 20260508152456 | 59 | 145 | 3.5 | 8.7 | 0.00 | 0.00 | 0.00 | 33 | 1009.3 |
| 20260508151956 | 59 | 232 | 3.5 | 7.8 | 0.00 | 0.00 | 0.00 | 36 | 1009.4 |
| 20260508151456 | 58 | 297 | 2.6 | 7.8 | 0.00 | 0.00 | 0.00 | 36 | 1009.4 |
| 20260508150956 | 58 | 233 | 1.7 | 11.3 | 0.00 | 0.00 | 0.00 | 33 | 1009.3 |
| 20260508150456 | 58 | 237 | 4.3 | 11.3 | 0.00 | 0.00 | 0.00 | 35 | 1009.4 |
| 20260508145957 | 58 | 211 | 1.7 | 4.3 | 0.00 | 0.00 | 0.00 | 40 | 1009.4 |
| 20260508145456 | 58 | 325 | 1.7 | 7.0 | 0.00 | 0.00 | 0.00 | 42 | 1009.5 |